UAL305 KEWR-KBOS

Flight info

Callsign UAL305
Flight time 0h 39m
Altitude 17000
Route BREZY V39 CMK V3 WOONS
Aircraft B739/M-SDE2E3FGHIRWXY/LB1

Departure

Time 2026-05-07 13:23
Airport Newark Liberty International Airport (KEWR)

Arrival

Time 2026-05-07 14:02
Airport Boston Logan International Airport (KBOS)
Time Latitude Longitude Altitude Speed Heading
2026-05-07 13:05 40.69389 -74.17155 23 ft 0 kts 267°
2026-05-07 13:16 40.69389 -74.17150 21 ft 3 kts 267°
2026-05-07 13:17 40.69390 -74.17125 21 ft 3 kts 267°
2026-05-07 13:17 40.69392 -74.17101 22 ft 3 kts 237°
2026-05-07 13:17 40.69403 -74.17089 23 ft 0 kts 192°
2026-05-07 13:19 40.69402 -74.17089 23 ft 1 kts 192°
2026-05-07 13:19 40.69319 -74.17106 21 ft 23 kts 187°
2026-05-07 13:19 40.69135 -74.17210 21 ft 30 kts 208°
2026-05-07 13:19 40.68951 -74.17328 22 ft 28 kts 206°
2026-05-07 13:20 40.68777 -74.17435 21 ft 27 kts 205°
2026-05-07 13:20 40.68612 -74.17525 21 ft 25 kts 173°
2026-05-07 13:20 40.68460 -74.17512 22 ft 23 kts 206°
2026-05-07 13:20 40.68321 -74.17608 22 ft 23 kts 208°
2026-05-07 13:21 40.68184 -74.17704 21 ft 22 kts 205°
2026-05-07 13:21 40.68048 -74.17787 21 ft 21 kts 205°
2026-05-07 13:21 40.67916 -74.17868 21 ft 21 kts 205°
2026-05-07 13:21 40.67844 -74.17905 21 ft 4 kts 186°
2026-05-07 13:22 40.67817 -74.17900 21 ft 4 kts 160°
2026-05-07 13:22 40.67797 -74.17871 21 ft 4 kts 122°
2026-05-07 13:22 40.67784 -74.17828 21 ft 6 kts 100°
2026-05-07 13:22 40.67804 -74.17780 22 ft 6 kts 34°
2026-05-07 13:23 40.67967 -74.17675 19 ft 67 kts 26°
2026-05-07 13:23 40.68632 -74.17256 27 ft 144 kts 23°
2026-05-07 13:23 40.69678 -74.16570 299 ft 187 kts 24°
2026-05-07 13:23 40.70904 -74.15723 1015 ft 206 kts 25°
2026-05-07 13:24 40.72212 -74.14908 2083 ft 210 kts 20°
2026-05-07 13:24 40.73617 -74.14302 2873 ft 218 kts
2026-05-07 13:24 40.75146 -74.14625 3378 ft 233 kts 333°
2026-05-07 13:24 40.76481 -74.15908 4231 ft 240 kts 327°
2026-05-07 13:25 40.78101 -74.16474 5123 ft 252 kts 359°
2026-05-07 13:25 40.79891 -74.16129 5832 ft 267 kts
2026-05-07 13:25 40.81744 -74.15769 6584 ft 275 kts
2026-05-07 13:25 40.83658 -74.15474 7370 ft 279 kts 358°
2026-05-07 13:26 40.85642 -74.15237 8133 ft 286 kts 355°
2026-05-07 13:26 40.87616 -74.15053 8906 ft 291 kts 354°
2026-05-07 13:26 40.89661 -74.14897 9734 ft 297 kts 353°
2026-05-07 13:26 40.91742 -74.14762 10365 ft 307 kts 352°
2026-05-07 13:27 40.93971 -74.14645 10545 ft 333 kts 353°
2026-05-07 13:27 40.96345 -74.14524 10958 ft 348 kts 353°
2026-05-07 13:27 40.98803 -74.14390 11612 ft 356 kts 353°
2026-05-07 13:27 41.01299 -74.14252 12335 ft 361 kts 352°
2026-05-07 13:28 41.03834 -74.14116 13020 ft 367 kts 352°
2026-05-07 13:28 41.06404 -74.13983 13714 ft 373 kts 352°
2026-05-07 13:28 41.09020 -74.13851 14376 ft 378 kts 352°
2026-05-07 13:28 41.11658 -74.13633 15158 ft 386 kts
2026-05-07 13:29 41.14244 -74.12349 15844 ft 411 kts 26°
2026-05-07 13:29 41.16355 -74.09784 16488 ft 426 kts 52°
2026-05-07 13:29 41.17679 -74.06252 16959 ft 431 kts 72°
2026-05-07 13:29 41.18500 -74.02343 16949 ft 448 kts 76°
2026-05-07 13:30 41.19303 -73.98271 16938 ft 465 kts 76°
2026-05-07 13:30 41.20162 -73.94055 16943 ft 480 kts 75°
2026-05-07 13:30 41.21077 -73.89727 16957 ft 493 kts 75°
2026-05-07 13:30 41.21705 -73.86802 16943 ft 499 kts 75°
2026-05-07 13:31 41.22667 -73.82367 16935 ft 500 kts 74°
2026-05-07 13:31 41.23644 -73.77932 16921 ft 500 kts 74°
2026-05-07 13:31 41.24625 -73.73501 16966 ft 499 kts 74°
2026-05-07 13:31 41.25598 -73.69093 16939 ft 497 kts 74°
2026-05-07 13:32 41.26565 -73.64687 16906 ft 494 kts 75°
2026-05-07 13:32 41.27523 -73.60301 16931 ft 493 kts 75°
2026-05-07 13:32 41.28611 -73.55967 16929 ft 495 kts 67°
2026-05-07 13:32 41.30054 -73.51783 16949 ft 496 kts 63°
2026-05-07 13:33 41.31583 -73.47661 16947 ft 498 kts 63°
2026-05-07 13:33 41.33103 -73.43579 16949 ft 499 kts 63°
2026-05-07 13:33 41.34627 -73.39416 16951 ft 500 kts 64°
2026-05-07 13:33 41.36127 -73.35235 16943 ft 501 kts 64°
2026-05-07 13:34 41.37613 -73.31033 16940 ft 501 kts 64°
2026-05-07 13:34 41.40563 -73.22637 16939 ft 500 kts 64°
2026-05-07 13:34 41.42039 -73.18438 16934 ft 499 kts 64°
2026-05-07 13:35 41.43510 -73.14250 16934 ft 499 kts 64°
2026-05-07 13:35 41.44977 -73.10065 16938 ft 498 kts 64°
2026-05-07 13:35 41.46441 -73.05883 16932 ft 497 kts 65°
2026-05-07 13:35 41.47900 -73.01707 16935 ft 497 kts 65°
2026-05-07 13:36 41.49361 -72.97524 16924 ft 497 kts 64°
2026-05-07 13:36 41.50799 -72.93403 16888 ft 497 kts 65°
2026-05-07 13:36 41.52260 -72.89209 16922 ft 499 kts 65°
2026-05-07 13:36 41.53720 -72.84985 16926 ft 502 kts 65°
2026-05-07 13:37 41.55185 -72.80729 16927 ft 504 kts 65°
2026-05-07 13:37 41.56654 -72.76452 16931 ft 506 kts 65°
2026-05-07 13:37 41.58120 -72.72180 16921 ft 506 kts 65°
2026-05-07 13:37 41.59583 -72.67912 16918 ft 506 kts 65°
2026-05-07 13:38 41.61047 -72.63640 16920 ft 505 kts 65°
2026-05-07 13:38 41.62505 -72.59377 16888 ft 504 kts 65°
2026-05-07 13:38 41.63775 -72.55072 16912 ft 503 kts 74°
2026-05-07 13:38 41.64576 -72.50507 16910 ft 501 kts 85°
2026-05-07 13:39 41.64931 -72.45879 16933 ft 500 kts 88°
2026-05-07 13:39 41.65237 -72.41251 16932 ft 501 kts 88°
2026-05-07 13:39 41.65553 -72.36599 16928 ft 502 kts 88°
2026-05-07 13:39 41.65887 -72.31944 16919 ft 502 kts 88°
2026-05-07 13:40 41.66229 -72.27368 16907 ft 501 kts 87°
2026-05-07 13:40 41.66584 -72.22741 16873 ft 500 kts 87°
2026-05-07 13:40 41.66941 -72.18104 16908 ft 499 kts 87°
2026-05-07 13:40 41.67297 -72.13478 16911 ft 499 kts 88°
2026-05-07 13:41 41.67649 -72.08851 16919 ft 500 kts 88°
2026-05-07 13:41 41.67998 -72.04220 16917 ft 500 kts 88°
2026-05-07 13:41 41.68345 -71.99591 16911 ft 501 kts 88°
2026-05-07 13:41 41.68692 -71.94937 16907 ft 501 kts 88°
2026-05-07 13:42 41.69039 -71.90293 16882 ft 502 kts 86°
2026-05-07 13:42 41.69738 -71.85718 16895 ft 506 kts 72°
2026-05-07 13:42 41.71209 -71.81442 16913 ft 506 kts 58°
2026-05-07 13:42 41.73302 -71.77671 16886 ft 503 kts 43°
2026-05-07 13:43 41.75857 -71.74505 16930 ft 499 kts 37°
2026-05-07 13:43 41.78434 -71.71467 16916 ft 501 kts 38°
2026-05-07 13:43 41.81023 -71.68328 16890 ft 501 kts 39°
2026-05-07 13:43 41.83577 -71.65143 16906 ft 503 kts 39°
2026-05-07 13:44 41.86132 -71.61925 16865 ft 502 kts 39°
2026-05-07 13:44 41.88672 -71.58740 16879 ft 499 kts 39°
2026-05-07 13:44 41.91206 -71.55572 16855 ft 498 kts 39°
2026-05-07 13:44 41.93750 -71.52393 16913 ft 497 kts 39°
2026-05-07 13:45 41.96310 -71.49257 16887 ft 496 kts 34°
2026-05-07 13:45 41.99220 -71.46980 16885 ft 480 kts 12°
2026-05-07 13:45 42.02435 -71.46062 16924 ft 463 kts 355°
2026-05-07 13:45 42.05557 -71.46266 16867 ft 446 kts 338°
2026-05-07 13:46 42.08398 -71.47603 16884 ft 422 kts 321°
2026-05-07 13:46 42.10687 -71.49869 16883 ft 397 kts 304°
2026-05-07 13:46 42.12249 -71.52698 16901 ft 359 kts 289°
2026-05-07 13:46 42.13096 -71.55693 16877 ft 326 kts 275°
2026-05-07 13:47 42.13355 -71.58586 16878 ft 300 kts 264°
2026-05-07 13:47 42.13171 -71.61281 16854 ft 279 kts 255°
2026-05-07 13:47 42.12647 -71.63702 16881 ft 263 kts 247°
2026-05-07 13:47 42.11841 -71.65880 16683 ft 264 kts 239°
2026-05-07 13:48 42.10747 -71.67847 16451 ft 263 kts 231°
2026-05-07 13:48 42.09377 -71.69525 16110 ft 264 kts 222°
2026-05-07 13:48 42.07798 -71.70800 15786 ft 266 kts 213°
2026-05-07 13:48 42.06065 -71.71634 15451 ft 271 kts 204°
2026-05-07 13:49 42.04198 -71.72121 15094 ft 275 kts 198°
2026-05-07 13:49 42.02261 -71.72253 14722 ft 284 kts 188°
2026-05-07 13:49 42.00267 -71.71729 14350 ft 300 kts 175°
2026-05-07 13:49 41.98286 -71.70824 13971 ft 301 kts 174°
2026-05-07 13:50 41.96309 -71.69890 13583 ft 301 kts 174°
2026-05-07 13:50 41.94331 -71.68949 13128 ft 301 kts 173°
2026-05-07 13:50 41.92358 -71.68009 12738 ft 300 kts 172°
2026-05-07 13:50 41.90496 -71.66563 12317 ft 326 kts 148°
2026-05-07 13:51 41.89146 -71.63986 11880 ft 352 kts 120°
2026-05-07 13:51 41.88757 -71.60745 11612 ft 365 kts 88°
2026-05-07 13:51 41.89501 -71.57501 11289 ft 364 kts 56°
2026-05-07 13:51 41.91160 -71.55020 10944 ft 353 kts 35°
2026-05-07 13:52 41.93044 -71.52917 10633 ft 352 kts 34°
2026-05-07 13:52 41.94901 -71.50758 10305 ft 354 kts 40°
2026-05-07 13:52 41.96402 -71.48110 10079 ft 359 kts 57°
2026-05-07 13:52 41.97675 -71.45242 9886 ft 354 kts 59°
2026-05-07 13:53 41.98882 -71.42410 9805 ft 343 kts 59°
2026-05-07 13:53 42.00073 -71.39613 9254 ft 349 kts 58°
2026-05-07 13:53 42.01285 -71.36795 8887 ft 348 kts 58°
2026-05-07 13:53 42.02490 -71.34024 8524 ft 347 kts 58°
2026-05-07 13:54 42.03710 -71.31234 8160 ft 345 kts 57°
2026-05-07 13:54 42.04927 -71.28464 7820 ft 342 kts 58°
2026-05-07 13:54 42.06135 -71.25721 7472 ft 339 kts 57°
2026-05-07 13:54 42.07332 -71.23004 7140 ft 337 kts 57°
2026-05-07 13:55 42.08519 -71.20308 6793 ft 329 kts 57°
2026-05-07 13:55 42.09664 -71.17705 6454 ft 318 kts 57°
2026-05-07 13:55 42.10775 -71.15178 6116 ft 308 kts 57°
2026-05-07 13:55 42.11847 -71.12737 5826 ft 297 kts 57°
2026-05-07 13:56 42.12895 -71.10353 5555 ft 294 kts 57°
2026-05-07 13:56 42.13938 -71.07981 5247 ft 295 kts 56°
2026-05-07 13:56 42.14990 -71.05612 4970 ft 292 kts 57°
2026-05-07 13:56 42.16005 -71.03287 4663 ft 289 kts 57°
2026-05-07 13:57 42.17020 -71.00956 4349 ft 286 kts 57°
2026-05-07 13:57 42.18022 -70.98659 4013 ft 281 kts 57°
2026-05-07 13:57 42.19000 -70.96419 3718 ft 273 kts 57°
2026-05-07 13:57 42.19954 -70.94237 3427 ft 268 kts 57°
2026-05-07 13:58 42.20879 -70.92116 3330 ft 258 kts 56°
2026-05-07 13:58 42.21776 -70.90057 3210 ft 249 kts 56°
2026-05-07 13:58 42.22640 -70.88076 3095 ft 241 kts 56°
2026-05-07 13:58 42.23669 -70.86391 2900 ft 229 kts 27°
2026-05-07 13:59 42.25143 -70.85976 2652 ft 215 kts 345°
2026-05-07 13:59 42.26407 -70.86907 2417 ft 207 kts 317°
2026-05-07 13:59 42.27420 -70.88277 2143 ft 203 kts 313°
2026-05-07 13:59 42.28382 -70.89614 1846 ft 199 kts 314°
2026-05-07 14:00 42.29360 -70.90939 1550 ft 193 kts 314°
2026-05-07 14:00 42.30266 -70.92158 1402 ft 177 kts 314°
2026-05-07 14:00 42.31103 -70.93284 1249 ft 164 kts 314°
2026-05-07 14:00 42.31877 -70.94327 1081 ft 151 kts 315°
2026-05-07 14:01 42.32593 -70.95290 849 ft 141 kts 315°
2026-05-07 14:01 42.33304 -70.96243 665 ft 143 kts 314°
2026-05-07 14:01 42.33998 -70.97181 471 ft 140 kts 312°
2026-05-07 14:01 42.34686 -70.98107 281 ft 141 kts 315°
2026-05-07 14:02 42.35390 -70.99044 102 ft 144 kts 315°
2026-05-07 14:02 42.36050 -70.99945 23 ft 124 kts 314°
2026-05-07 14:02 42.36557 -71.00633 24 ft 82 kts 315°
2026-05-07 14:02 42.36864 -71.01056 28 ft 44 kts 314°
2026-05-07 14:03 42.36915 -71.01187 24 ft 0 kts 233°
2026-05-07 14:05 42.36915 -71.01188 24 ft 1 kts 233°
2026-05-07 14:05 42.36896 -71.01214 25 ft 8 kts 224°
2026-05-07 14:05 42.36835 -71.01289 25 ft 16 kts 222°
2026-05-07 14:05 42.36710 -71.01315 27 ft 22 kts 187°
2026-05-07 14:06 42.36639 -71.01380 27 ft 0 kts 249°
2026-05-07 14:06 42.36639 -71.01381 25 ft 0 kts 250°